User: anonymous   Login
Location: Boca do Mato
(22.9085°S, 43.2930°W)
Time: 08:21:17
(UTC+00:00)
Language:

Cosmos 1674 - Orbit

View from above orbital plane
View from above orbital plane
View from above satellite
View from above satellite

Ground track
Ground track

The orbit data is extracted from the following two-line orbital elements,

1 15944U 85069A   20272.84703801 +.00001054 +00000-0 +47465-4 0  9995
2 15944 082.5051 119.4579 0015294 273.7327 086.2159 15.19886361919888
Epoch (UTC): 28 September 2020 20:19:44
Eccentricity: 0.0015294
inclination: 82.5051°
perigee height: 495 km
apogee height: 517 km
right ascension of ascending node: 119.4579°
argument of perigee: 273.7327°
revolutions per day: 15.19886361
mean anomaly at epoch: 86.2159°
orbit number at epoch: 91988

The dashed part of the orbit path shows where the satellite is in the earth's shadow,  

DLR